Home   Weather   Fort Myers   Past weeks

Flag for USA Past Weather in Fort Myers, Florida, USA — Yesterday and Last 2 Weeks

Now
67 °F

Overcast.


Feels Like: 67 °F
Forecast: 59 / 65 °F
Wind: 9 mph from North

Location: Page Field

Current Time: Dec 9, 2016 at 12:57:03 am

Latest Report: Dec 8, 2016 at 11:53 pm


Visibility: 10 mi

Pressure: 30.18 "Hg

Humidity: 73%

Dew Point: 58 °F

Location of Fort MyersLocation

Past Weather in Fort Myers — Graph

°F

Fort Myers Temperature Yesterday

Maximum temperature yesterday: 74 °F (at 1:53 pm)
Minimum temperature yesterday: 64 °F (at 5:53 am)
Average temperature yesterday: 68 °F

High & Low Weather Summary for the Past Weeks

 TemperatureHumidityPressure
High87 °F (Dec 5, 1:53 pm)97% (Dec 1, 3:53 am)30.24 "Hg (Dec 1, 3:53 am)
Low59 °F (Nov 27, 4:53 am)27% (Nov 27, 1:53 pm)29.90 "Hg (Dec 6, 2:53 pm)
Average73 °F76%30.05 "Hg
* Reported Nov 23 10:53 pm — Dec 8 10:53 pm, Fort Myers, Weather by CustomWeather, © 2016

Note: Actual official high and low records may vary slightly from our data, if they occured in-between our weather recording intervals... More about our weather records

Advertising

Fort Myers Weather History for the Previous 24 Hours

Scroll right to see more
 ConditionsComfort  
Time TempWeatherWind HumidityBarometerVisibility
10:53 pm
Thu, Dec 8
67 °FPassing clouds.7 mph71%30.17 "Hg10 mi
9:53 pm67 °FOvercast.6 mph71%30.16 "Hg10 mi
8:53 pm68 °FOvercast.9 mph65%30.14 "Hg10 mi
7:53 pm69 °FOvercast.10 mph68%30.13 "Hg10 mi
6:53 pm69 °FClear.3 mph73%30.12 "Hg10 mi
5:53 pm70 °FPassing clouds.7 mph71%30.11 "Hg10 mi
4:53 pm71 °FOvercast.9 mph71%30.10 "Hg8 mi
3:53 pm73 °FOvercast.7 mph66%30.09 "Hg10 mi
2:53 pm73 °FOvercast.7 mph66%30.07 "Hg10 mi
1:53 pm74 °FPassing clouds.8 mph64%30.08 "Hg10 mi
12:53 pm72 °FOvercast.8 mph71%30.10 "Hg10 mi
11:53 am71 °FOvercast.7 mph71%30.14 "Hg10 mi
10:53 am69 °FOvercast.10 mph73%30.15 "Hg10 mi
9:53 am67 °FOvercast.8 mph79%30.16 "Hg10 mi
8:53 am66 °FLight rain. Mostly cloudy.7 mph81%30.15 "Hg9 mi
7:53 am65 °FOvercast.7 mph85%30.12 "Hg9 mi
6:53 am64 °FPassing clouds.9 mph87%30.11 "Hg10 mi
5:53 am64 °FPassing clouds.7 mph87%30.10 "Hg10 mi
4:53 am65 °FPassing clouds.8 mph85%30.08 "Hg10 mi
3:53 am66 °FPassing clouds.6 mph84%30.08 "Hg10 mi
2:53 am66 °FClear.6 mph84%30.08 "Hg10 mi
1:53 am66 °FClear.5 mph87%30.09 "Hg10 mi
12:53 am67 °FClear.6 mph85%30.08 "Hg10 mi
Weather by CustomWeather, © 2016

See weather overviewHow to use our weather pages